Location: Andrea Ville Subdivision
(14.3485°N, 120.9580°E)
Time: 03:06:53
(UTC+00:00)

Meteor 1-24 Rocket - Pass Details

Date: 13 January 2026
Orbit: 790 x 925 km, 81.3° (Epoch: 16 February)

Event Time Altitude Azimuth Distance (km) Brightness Sun altitude
Rises 11:12:03 0° 168° (SSE) 3,297 6.9 -20.6°
Reaches altitude 10° 11:14:32 10° 161° (SSE) 2,380 6.0 -21.1°
Enters shadow 11:18:33 36° 118° (ESE) 1,265 4.2 -22.1°
